STARLINK AE

Last updated on Sat Jul 15 2023 00:02:05 GMT+0000 (Coordinated Universal Time)

1 57246U 23094AE 23195.75001157 -.01069277 34100-3 -30495-2 0 9996 2 57246 42.9950 276.0445 0023795 199.8801 243.3407 15.91840652 1303

Satellite not in orbit

STARLINK AE